ASTRA 2F

Last updated on Thu Aug 13 2026 00:02:59 GMT+0000 (Coordinated Universal Time)

1 38778U 12051A 26224.57764148 .00000132 00000+0 00000+0 0 9994 2 38778 0.0655 260.9697 0002961 291.5140 4.6456 1.00270498 41708
UTC large
Height (km)
Speed (km/s)
/
Latitude / Longitude
Inclination (degrees)
Orbital Period (minutes)
Azimuth
Elevation
Range (km)
Doppler Factor

Next 0 passes for location: London (51.5072 / 0.1276)

No passes found over London.
ASTRA 2F